Regional Weather Roundup
Issued by NWS

Home | Current Version | Previous Version | Text Only | Print | Product List | Glossary On
Versions: 1 2 3 4 5 6 7 8 9 10 11 12 13 14 15 16 17 18 19 20 21 22 23 24 25 26 27
000
ASUS44 KLIX 291713
RWRLA
LOUISIANA WEATHER ROUNDUP
NATIONAL WEATHER SERVICE NEW ORLEANS LA
1200 PM CDT SAT APR 29 2017

NOTE: "FAIR" INDICATES FEW OR NO CLOUDS BELOW 12,000 FEET WITH NO
      SIGNIFICANT WEATHER AND/OR OBSTRUCTIONS TO VISIBILITY.
      SKY/WX - SKY CONDITION AND SIGNIFICANT WEATHER.
      TMP - AIR TEMPERATURE.    DP   - DEWPOINT TEMPERATURE.
      RH  - RELATIVE HUMIDITY.  PRES - PRESSURE.
      HX  - HEAT INDEX.         WCI  - WIND CHILL INDEX.

*  THESE STATIONS ARE NOT NWS OR FAA STATIONS AND ARE NOT UNDER
   NWS QUALITY CONTROL.

LAZ040-048-061>063-065-066-069-291800-
SOUTHEAST LOUISIANA

CITY           SKY/WX    TMP DP  RH WIND       PRES   REMARKS
N.O. INTL ARPT PTSUNNY   83  74  74 SE22G33   29.92S
N.O. LAKEFRONT CLOUDY    84  74  71 SE18G31   29.94S
N.O. DOWNTOWN*   N/A     84  74  71 S18G28      N/A
RESERVE*       NOT AVBL
SLIDELL        CLOUDY    82  73  74 SE16G26   29.95S
BATON ROUGE    CLOUDY    85  71  63 S18G32    29.88S
BOOTHVILLE     PTSUNNY   81  75  82 SE22G32   29.96S
BELLE CHASSE   PTSUNNY   81  76  84 SE23G32   29.93S
BOGALUSA*      NOT AVBL
GALLIANO*      CLOUDY    82  73  76 SE14G22   29.92S
NEW ROADS*     PTSUNNY   85  72  64 S18G30    29.87F
GONZALES*      CLOUDY    86  73  65 SE16G24   29.88F
HAMMOND*       CLOUDY    82  72  69 SE20G26   29.92F
HOUMA*         CLOUDY    82  75  78 SE20G29     N/A  HAZE
PORT FOURCHON* MOSUNNY   81  75  83 SE16G23   29.90F HAZE

$$

LAZ041-044-053-054-291800-
SOUTHWEST LOUISIANA

CITY           SKY/WX    TMP DP  RH WIND       PRES   REMARKS
LAKE CHARLES   CLOUDY    80  73  79 S20G35    29.78S
LAFAYETTE      CLOUDY    87  73  62 S16G31    29.83F
PATTERSON      CLOUDY    83  75  77 S23G32    29.89R
SALT POINT       N/A     82  75  79 SE13G24   29.85R
NEW IBERIA     LGT RAIN  85  72  65 SE35G41   29.85S
CHENAULT AIRPK SHOWER    68  63  83 SE25G32   29.79S

$$

LAZ027-028-291800-
CENTRAL LOUISIANA

CITY           SKY/WX    TMP DP  RH WIND       PRES   REMARKS
FORT POLK      CLOUDY    79  72  81 SE14G21   29.78S THUNDER
ALEXANDRIA INT CLOUDY    82  71  69 S21G31    29.78F
ALEXANDRIA     CLOUDY    84  72  67 S17G36    29.80F

$$

LAZ001-002-291800-
NORTHWEST LOUISIANA

CITY           SKY/WX    TMP DP  RH WIND       PRES   REMARKS
SHREVEPORT     CLOUDY    84  74  71 S21G35    29.71F
BARKSDALE AFB  CLOUDY    80  74  83 S22       29.72F
DTN SHREVEPORT PTSUNNY   83  72  69 S23G32    29.71F

$$

LAZ014-016-291800-
NORTHEAST LOUISIANA

CITY           SKY/WX    TMP DP  RH WIND       PRES   REMARKS
MONROE         PTSUNNY   85  71  63 S20G33    29.80F
TALLULAH       LGT RAIN  84  71  65 S17G25    29.88R

$$





USA.gov is the U.S. government's official web portal to all federal, state and local government web resources and services.